Observations
| Time | Sensor | AQI | SAQ | Temp °C | Hum % | Pres Pa | CO μg/m³ | H₂S μg/m³ | NO μg/m³ | NO₂ μg/m³ | O₃ μg/m³ | SO₂ μg/m³ | CO₂e PPM | VOC PPM | PM1 μg/m³ | PM2.5 μg/m³ | PM4 μg/m³ | PM10 μg/m³ | TPS µm |
|---|---|---|---|---|---|---|---|---|---|---|---|---|---|---|---|---|---|---|---|
| Tuesday 11 August 2026 | |||||||||||||||||||
| 01:01 | Trim Market St | 2 | 14.9 | 63 | 57,795 | 0.26 | 0 | 2.6 | 15.15 | 41.64 | 0 | 2.14 | 3.4 | 4.85 | |||||
| 01:01 | Trim Patrick St | 2 | 13.4 | 70 | 37,787 | 0.22 | 5.67 | 3.48 | 32.18 | 14.08 | 0 | 2.86 | 6.59 | 7.25 | |||||
| 01:00 | Trim Patrick St | 2 | 13.4 | 70 | 37,562 | 0.21 | 5.88 | 3.52 | 35.32 | 11.7 | 0 | 3.71 | 8.04 | 8.85 | |||||
| 00:59 | Trim Patrick St | 2 | 13.4 | 70 | 37,262 | 0.23 | 5.75 | 3.45 | 34.43 | 12.18 | 0 | 3.71 | 7.32 | 8.05 | |||||
| 00:58 | Trim Patrick St | 2 | 13.5 | 70 | 36,862 | 0.21 | 6.17 | 3.49 | 30.71 | 14.85 | 0 | 2 | 6.61 | 7.27 | |||||
| 00:57 | Trim Patrick St | 2 | 13.5 | 70 | 36,330 | 0.21 | 7.18 | 3.4 | 39.61 | 9.86 | 0 | 2.86 | 7.34 | 8.07 | |||||
| 00:56 | Trim Patrick St | 2 | 13.5 | 70 | 35,619 | 0.22 | 6.22 | 3.5 | 34.79 | 12.94 | 0 | 3.71 | 8.06 | 8.86 | |||||
| 00:55 | Trim Patrick St | 2 | 13.5 | 70 | 34,671 | 0.21 | 6.06 | 3.45 | 34.77 | 11.88 | 0 | 3.71 | 7.34 | 8.08 | |||||
| 00:54 | Trim Market St | 2 | 15 | 62 | 57,819 | 0.25 | 0 | 1.85 | 17.5 | 39.3 | 0 | 1.43 | 2.42 | 4.17 | |||||
| 00:54 | Trim Patrick St | 2 | 13.5 | 70 | 33,409 | 0.21 | 6.22 | 3.43 | 34.31 | 12.19 | 0 | 2.86 | 6.63 | 7.29 | |||||
| 00:53 | Trim Patrick St | 2 | 13.6 | 70 | 31,724 | 0.2 | 6.95 | 3.3 | 34.69 | 14.13 | 0 | 2.86 | 6.63 | 7.29 | |||||
| 00:52 | Trim Patrick St | 2 | 13.5 | 69 | 29,479 | 0.2 | 5.96 | 3.12 | 37.41 | 10.29 | 0 | 2.86 | 6.64 | 7.31 | |||||
| 00:51 | Trim Patrick St | 2 | 13.6 | 69 | 26,486 | 0.21 | 6.35 | 2.75 | 36.45 | 11.78 | 0 | 2.86 | 6.64 | 7.31 | |||||
| 00:50 | Trim Patrick St | 2 | 13.6 | 69 | 22,494 | 0.19 | 6.07 | 2.83 | 34.66 | 12.6 | 0 | 3.71 | 8.09 | 8.9 | |||||
| 00:49 | Trim Market St | 2 | 15.1 | 62 | 57,833 | 0.24 | 0 | 1.45 | 13.79 | 41.6 | 0 | 1.43 | 3.43 | 4.83 | |||||
| 00:49 | Trim Patrick St | 2 | 13.6 | 69 | 18,328 | 0.2 | 6.09 | 3.12 | 35.09 | 12.28 | 0 | 3.71 | 7.38 | 8.12 | |||||
| 00:48 | Trim Market St | 2 | 15.1 | 62 | 57,836 | 0.23 | 0 | 1.41 | 22.67 | 39.99 | 0 | 1.43 | 2.93 | 5.51 | |||||
| 00:48 | Trim Patrick St | 2 | 13.6 | 69 | 14,385 | 0.2 | 5.91 | 3.17 | 33.73 | 13.41 | 0 | 2.86 | 6.66 | 7.33 | |||||
| 00:47 | Trim Market St | 2 | 15.1 | 62 | 57,839 | 0.22 | 0 | 1.58 | 14.11 | 40.56 | 0 | 1.43 | 3.93 | 5.5 | |||||
| 00:47 | Trim Patrick St | 2 | 13.6 | 69 | 10,500 | 0.2 | 5.94 | 3.04 | 34.63 | 12.6 | 0 | 3.71 | 7.38 | 8.12 | |||||